Regional Weather Roundup
Issued by NWS

Home | Current Version | Previous Version | Graphics & Text | Print | Product List | Glossary On
Versions: 1 2 3 4 5 6 7 8 9 10 11 12 13 14 15 16 17 18 19 20 21 22 23 24 25 26 27 28 29 30 31 32 33 34 35 36 37 38 39 40 41 42 43 44 45 46 47 48 49 50
000
ASUS45 KCYS 291710
RWRWY

WYOMING REGIONAL WEATHER ROUNDUP
NATIONAL WEATHER SERVICE CHEYENNE WY
1100 AM MDT MON JUN 29 2015

NOTE:  "FAIR" INDICATES FEW OR NO CLOUDS BELOW 12,000 FEET
WITH NO SIGNIFICANT WEATHER AND/OR OBSTRUCTIONS TO VISIBILITY.

WYZ001-291800-
YELLOWSTONE NATIONAL PARK

CITY           SKY/WX    TMP DP  RH WIND       PRES   REMARKS
LK YELLOWSTONE   N/A     71  44  37 E3        30.45F
W YELLOWSTONE  NOT AVBL

$$
WYZ002>013-054>058-071-098>099-291800-
NORTHERN WYOMING

CITY           SKY/WX    TMP DP  RH WIND       PRES   REMARKS
JACKSON        FAIR      73  48  40 CALM      30.34S
CODY           FAIR      84  46  26 E6        30.23S
GREYBULL       FAIR      86  50  28 S6        30.14F
WORLAND        FAIR      82  51  34 CALM      30.17F
SHERIDAN       FAIR      87  55  33 VRB3      30.16S
BUFFALO        FAIR      84  50  30 N12       30.23R
GILLETTE         N/A     81  58  45 MISG      30.18R
HULETT         FAIR      81  54  39 SW14      30.18S
NEWCASTLE      FAIR      77  50  38 CALM      30.19S

$$
WYZ014>020-022>026-101>103-291800-
CENTRAL WYOMING

CITY           SKY/WX    TMP DP  RH WIND       PRES   REMARKS
BIG PINEY      FAIR      76  48  37 W7        30.39F
PINEDALE       FAIR      77  43  29 CALM      30.39S
DUBOIS         FAIR      77  41  27 SE9       30.39S
LANDER         FAIR      81  48  31 NE3       30.27F
RIVERTON       FAIR      81  53  37 MISG      30.28S
CASPER         FAIR      82  46  28 VRB3      30.25F
DOUGLAS        FAIR      82  51  34 W9        30.23R

$$
WYZ021-027>030-104>119-291800-
SOUTHERN WYOMING

CITY           SKY/WX    TMP DP  RH WIND       PRES   REMARKS
EVANSTON       FAIR      79  44  28 NE13G18   30.37S
KEMMERER       FAIR      79  41  25 E12       30.40S
FORT BRIDGER   SUNNY     82  43  24 E12       30.39F
ROCK SPRINGS   FAIR      80  45  28 E8        30.35F
DIXON          FAIR      81  43  25 SW3       30.34S
RAWLINS        FAIR      79  45  29 E9        30.36S
SARATOGA       FAIR      75  45  33 NE3       30.38F
LARAMIE        FAIR      76  48  37 NE7       30.38S
CHEYENNE       FAIR      76  54  46 VRB5      30.30S
TORRINGTON     FAIR      79  55  43 S6        30.18F
PINE BLUFFS    FAIR      77  54  44 SW5       30.26S

$$


USA.gov is the U.S. government's official web portal to all federal, state and local government web resources and services.